Terminal Aerodrome Forecast
Issued by NWS Bismarck, ND

Home | Current Version | Previous Version | Graphics & Text | Print | Product List | Glossary On
Versions: 1 2 3 4 5 6 7 8 9 10 11 12 13 14 15 16 17 18 19 20 21 22 23 24 25 26 27
000
FTUS43 KBIS 230500
TAFISN
TAF
KISN 230538Z 2306/2406 26018G24KT P6SM SCT022 BKN030 OVC100
     FM230900 28020G30KT P6SM -SN OVC022
     FM231400 31024G35KT 5SM -SN BLSN OVC015
     FM232200 32020G28KT P6SM OVC015
     FM240300 32010KT P6SM OVC025=

USA.gov is the U.S. government's official web portal to all federal, state and local government web resources and services.